TimeCDT,TemperatureF,Dew PointF,Humidity,Sea Level PressureIn,VisibilityMPH,Wind Direction,Wind SpeedMPH,Gust SpeedMPH,PrecipitationIn,Events,Conditions,WindDirDegrees,DateUTC
12:15 AM,44.6,44.6,100,30.07,10.0,ESE,5.8,-,N/A,,Clear,120,2013-09-24 05:15:00
12:35 AM,44.6,44.6,100,30.07,7.0,SE,4.6,-,N/A,,Clear,130,2013-09-24 05:35:00
12:55 AM,44.6,44.6,100,30.07,7.0,ESE,4.6,-,N/A,,Clear,120,2013-09-24 05:55:00
1:15 AM,44.6,44.6,100,30.07,7.0,ESE,4.6,-,N/A,,Clear,110,2013-09-24 06:15:00
1:35 AM,44.6,44.6,100,30.07,7.0,ESE,5.8,-,N/A,,Clear,110,2013-09-24 06:35:00
1:55 AM,44.6,44.6,100,30.06,7.0,ESE,4.6,-,N/A,,Clear,110,2013-09-24 06:55:00
2:15 AM,44.6,44.6,100,30.07,7.0,ESE,3.5,-,N/A,,Clear,120,2013-09-24 07:15:00
2:35 AM,42.8,42.8,100,30.07,5.0,ESE,4.6,-,N/A,,Clear,110,2013-09-24 07:35:00
2:55 AM,42.8,42.8,100,30.06,5.0,East,4.6,-,N/A,,Clear,100,2013-09-24 07:55:00
3:15 AM,42.8,42.8,100,30.07,4.0,Calm,Calm,-,N/A,,Clear,0,2013-09-24 08:15:00
3:35 AM,42.8,42.8,100,30.07,3.0,Calm,Calm,-,N/A,,Clear,0,2013-09-24 08:35:00
3:55 AM,42.8,42.8,100,30.07,5.0,ENE,3.5,-,N/A,,Clear,60,2013-09-24 08:55:00
4:15 AM,41.0,41.0,100,30.07,5.0,ENE,5.8,-,N/A,,Clear,70,2013-09-24 09:15:00
4:35 AM,41.0,41.0,100,30.07,2.0,East,6.9,-,N/A,,Clear,80,2013-09-24 09:35:00
4:55 AM,41.0,41.0,100,30.07,2.5,East,5.8,-,N/A,,Clear,90,2013-09-24 09:55:00
5:15 AM,41.0,41.0,100,30.07,2.5,East,5.8,-,N/A,,Clear,80,2013-09-24 10:15:00
5:35 AM,41.0,41.0,100,30.08,2.0,East,4.6,-,N/A,,Clear,80,2013-09-24 10:35:00
5:45 AM,42.8,42.8,100,30.08,1.5,East,5.8,-,N/A,,Mostly Cloudy,80,2013-09-24 10:45:00
6:08 AM,42.8,42.8,100,30.08,0.2,East,5.8,-,N/A,Fog,Fog,80,2013-09-24 11:08:00
6:45 AM,42.8,42.8,100,30.08,0.2,East,5.8,-,N/A,Fog,Fog,80,2013-09-24 11:45:00
7:45 AM,44.6,44.6,100,30.07,0.1,East,6.9,-,N/A,Fog,Fog,90,2013-09-24 12:45:00
8:50 AM,48.2,48.2,100,30.08,0.1,ESE,4.6,-,N/A,Fog,Fog,110,2013-09-24 13:50:00
9:12 AM,48.2,48.2,100,30.08,0.2,East,4.6,-,N/A,Fog,Fog,100,2013-09-24 14:12:00
9:45 AM,50.0,50.0,100,30.08,1.5,ESE,3.5,-,N/A,,Overcast,120,2013-09-24 14:45:00
10:18 AM,51.8,51.8,100,30.08,4.0,East,4.6,-,N/A,,Mostly Cloudy,90,2013-09-24 15:18:00
10:50 AM,53.6,53.6,100,30.07,7.0,ESE,3.5,-,N/A,,Scattered Clouds,110,2013-09-24 15:50:00
11:55 AM,62.6,53.6,72,30.06,10.0,Calm,Calm,-,N/A,,Clear,0,2013-09-24 16:55:00
12:45 PM,64.4,51.8,64,30.04,10.0,SE,3.5,-,N/A,,Clear,140,2013-09-24 17:45:00
1:50 PM,68.0,48.2,49,30.03,10.0,East,5.8,-,N/A,,Clear,100,2013-09-24 18:50:00
2:45 PM,68.0,51.8,56,30.02,10.0,Calm,Calm,-,N/A,,Clear,0,2013-09-24 19:45:00
3:50 PM,69.8,48.2,46,30.01,10.0,ESE,6.9,-,N/A,,Clear,120,2013-09-24 20:50:00
4:50 PM,68.0,50.0,52,30.00,10.0,ESE,5.8,-,N/A,,Clear,110,2013-09-24 21:50:00
5:45 PM,66.2,51.8,60,30.00,10.0,East,3.5,-,N/A,,Clear,90,2013-09-24 22:45:00
6:52 PM,62.6,51.8,68,29.99,10.0,East,3.5,-,N/A,,Clear,100,2013-09-24 23:52:00
7:45 PM,60.8,53.6,77,30.00,10.0,East,3.5,-,N/A,,Clear,90,2013-09-25 00:45:00
8:45 PM,53.6,51.8,94,30.01,10.0,East,5.8,-,N/A,,Clear,90,2013-09-25 01:45:00
9:45 PM,53.6,51.8,94,30.01,10.0,East,5.8,-,N/A,,Clear,100,2013-09-25 02:45:00
10:15 PM,51.8,50.0,94,30.02,10.0,ESE,5.8,-,N/A,,Clear,110,2013-09-25 03:15:00
10:35 PM,51.8,50.0,94,30.02,10.0,ESE,4.6,-,N/A,,Clear,120,2013-09-25 03:35:00
10:55 PM,50.0,50.0,100,30.02,7.0,ESE,4.6,-,N/A,,Clear,120,2013-09-25 03:55:00
11:15 PM,50.0,50.0,100,30.02,7.0,ESE,3.5,-,N/A,,Clear,110,2013-09-25 04:15:00
11:35 PM,50.0,50.0,100,30.01,7.0,ESE,4.6,-,N/A,,Clear,110,2013-09-25 04:35:00
11:55 PM,48.2,48.2,100,30.01,7.0,Calm,Calm,-,N/A,,Clear,0,2013-09-25 04:55:00